Regional Weather Roundup
Issued by NWS Grand Forks, ND

Home | Current Version | Previous Version | Graphics & Text | Print | Product List | Glossary On
Versions: 1 2 3 4 5 6 7 8 9 10 11 12 13 14 15 16 17 18 19 20 21 22 23 24 25 26 27 28 29 30 31 32 33 34 35 36 37 38 39 40 41 42 43 44 45 46 47 48 49 50
000
ASUS43 KFGF 260231
RWRFGF
PRAIRIE TO PINES  WEATHER ROUNDUP
NATIONAL WEATHER SERVICE EASTERN NORTH DAKOTA/GRAND FORKS ND
800 PM CST TUE NOV 25 2014

 **SATELLITE DATA USED TO AUGMENT SKY COVER AT AUTOMATED STATIONS**
 *****  WEATHER ACROSS EASTERN NORTH DAKOTA  *****

CITY           SKY/WX    TMP DP  RH WIND       PRES   REMARKS
GRAND FORKS    LGT SNOW  18  12  79 N15       30.05R FOG     WCI   3
GRAND FRKS AFB LGT SNOW  16  14  93 N16G22    30.04R FOG     WCI   0
GRAND FRKS NWS   N/A     18 N/A N/A VRB10       N/A  WCI   6
DEVILS LAKE    CLOUDY    12   3  67 NE15G21   30.00R WCI  -4
FARGO          CLOUDY    25  17  72 NE8       29.95R WCI  16
WAHPETON ARPT  CLOUDY    23  18  80 SE7       29.93R WCI  15
$$

 ***** WEATHER ACROSS CENTRAL AND WESTERN NORTH DAKOTA  *****

CITY           SKY/WX    TMP DP  RH WIND       PRES   REMARKS
BISMARCK       LGT SNOW  29  26  89 NE23G32   29.82R FOG     WCI  15
MINOT          LGT SNOW  17  13  84 N12       30.02R FOG     WCI   4
JAMESTOWN      SNOW      23  21  92 E16       29.87R VSB 1/2 WCI  10
MINOT AFB      CLOUDY    12  10  92 N13       30.04R WCI  -3
GARRISON         N/A     20  16  84 NE18G28   29.94R WCI   5
WILLISTON      CLOUDY    20  15  81 N13       30.07R WCI   7
DICKINSON      CLOUDY    26  23  88 N23G31    29.89R WCI  11
HETTINGER      CLOUDY    31  26  82 NW30G45   29.86R WCI  16
$$

 *****  OTHER AIRPORT OBSERVATIONS IN OUR AREA  *****

CITY           SKY/WX    TMP DP  RH WIND       PRES   REMARKS
WALHALLA       FLURRIES   9   7  92 N12       30.13R WCI  -6
GRAFTON AIRPOR LGT SNOW  12   9  85 N16       30.08R WCI  -4
VALLEY CITY AR LGT SNOW  23  23 100 NE16      29.91R WCI  10
CANDO          LGT SNOW  12   7  79 NE15G24   30.05R WCI  -4
CAVALIER APRT  LGT SNOW  10   7  85 N15G21    30.11R WCI  -6
GWINNER        MOCLDY    28  23  80 E12       29.87R WCI  18
SHEYENNE NWR     N/A     23  17  79 E8        29.95S WCI  14
ROLLA          CLOUDY     7   3  85 NE13      30.06R WCI  -9
 ***** THE ABOVE OBSERVATIONS ARE NON NWS ARE NOT QUALITY
       CONTROLLED AND MAY MIS-REPORT RAIN FOR SNOW...
$$

  *****  WEATHER ACROSS NORTHERN MINNESOTA  *****

CITY           SKY/WX    TMP DP  RH WIND       PRES   REMARKS
FLAG ISLAND    MOCLDY    12   9  85 N8        30.03  WCI   1
WARROAD        LGT SNOW  12   9  85 N7        30.04R WCI   2
ROSEAU         LGT SNOW  14   9  79 N7        30.04R WCI   4
HALLOCK        LGT SNOW  12   9  85 N16       30.08R WCI  -4
THF RVR FALLS  CLOUDY    21  14  73 N7        30.01R WCI  13
BAUDETTE       LGT SNOW  15  11  83 N6        30.00R FOG     WCI   6
WASKISH        CLOUDY    18  16  93 CALM      29.99R
CROOKSTON      LGT SNOW  21  18  86 NE7       30.02R WCI  13
STEPHEN NDAWN    N/A     16  10  79 N14         N/A  WCI   1
GREENBUSH NDAW   N/A     14  10  85 N12         N/A  WCI   0
$$
  *****  WEATHER ACROSS CENTRAL AND WEST MINNESOTA  *****

CITY           SKY/WX    TMP DP  RH WIND       PRES   REMARKS
FOSSTON        CLOUDY    19  12  73 NE3       29.98R
BEMIDJI        CLOUDY    18  12  76 E5        29.97R WCI  11
PARK RAPIDS    MOCLDY    18   9  68 E6        29.94R WCI  10
ELBOW LAKE       N/A     22  15  72 SE10      29.91R WCI  11
WADENA         MOCLDY    18   9  68 E5        29.94R WCI  11
DETROIT LAKES  CLOUDY    21  14  73 E3        29.95R
MOORHEAD       CLOUDY    25  19  80 NE6       29.97R WCI  18
FERGUS FALLS   CLOUDY    23  12  63 SE9       29.95R WCI  13
MORRIS MN      CLOUDY    23  16  74 SE12      29.90S WCI  12
STAPLES        CLOUDY    16   9  73 CALM      29.95S
$$
  *****  WEATHER ELSEWHERE ACROSS MINNESOTA  *****

CITY           SKY/WX    TMP DP  RH WIND       PRES   REMARKS
DULUTH         CLOUDY    18   9  68 S5        29.99R WCI  11
INTRNTL FALLS  CLOUDY    13   8  81 CALM      29.99R
ELY            MOCLDY     9   7  92 CALM      29.98R
CLOQUET        CLOUDY    18  10  73 CALM      30.01R
WHEATON        CLOUDY    21  18  86 SE16      29.92S WCI   7
BRAINERD       MOCLDY    16   8  71 CALM      29.98R
HIBBING        CLOUDY    19   5  54 SW3       29.98R
ALEXANDRIA     CLOUDY    20  13  74 SE8       29.92S WCI  10
SAINT CLOUD    CLOUDY    21  12  68 E6        30.00R WCI  13
MINNEAPOLIS    CLOUDY    24  15  68 SE9       30.01F WCI  14
$$

  *****  WEATHER ACROSS SOUTH DAKOTA  *****

CITY           SKY/WX    TMP DP  RH WIND       PRES   REMARKS
SIOUX FALLS    CLOUDY    35  24  64 SE16      29.82F
BROOKINGS      NOT AVBL
WATERTOWN      CLOUDY    30  23  75 SE8       29.81F WCI  22
HURON          CLOUDY    33  25  72 S6        29.79R
SISSETON         N/A     25  21  85 SE7       29.87S WCI  17
ABERDEEN       LGT SNOW  32  29  88 SE12      29.80S VSB 1   WCI  23
MITCHELL       CLOUDY    34  27  75 S6        29.78F
PIERRE         CLOUDY    35  33  92 W12       29.79R
MOBRIDGE       CLOUDY    36  32  85 NW12      29.72S
RAPID CITY     CLOUDY    35  24  64 NW24      29.88R WCI  23
$$

  *****  SOME WEATHER IN NEARBY STATES *****

CITY           SKY/WX    TMP DP  RH WIND       PRES   REMARKS
GLASGOW MT     CLOUDY    23  17  78 N16       30.12R WCI  10
GREAT FALLS MT CLOUDY    30  26  85 S7        30.12F WCI  23
CHEYENNE WY    LGT SNOW  29  26  89 NE16G25   29.94R VSB 3/4 WCI  17
SCOTTSBLUFF NE CLOUDY    34  32  92 W8        29.96R
OMAHA NE       CLOUDY    39  25  57 S10       29.93F
DES MOINES IA  PTCLDY    30  12  47 SE10      30.04F WCI  21
DAVENPORT IA   CLEAR     16  12  84 SE6       30.15R WCI   7
CHICAGO IL     PTCLDY    18  14  84 SW5       30.17S WCI  11
EAU CLAIRE WI  CLOUDY    22  14  71 SE8       30.05F WCI  12
LA CROSSE WI   MOCLDY    22  14  71 S8        30.10S WCI  12
$$

  *****  SOME NATIONAL WEATHER *****

CITY           SKY/WX    TMP DP  RH WIND       PRES   REMARKS
LA GUARDIA NY  CLOUDY    52  28  39 W10       30.12R
RALEIGH NC     LGT RAIN  50  45  81 N3        30.13R
ATLANTA GA     CLOUDY    54  31  41 NW7       30.04S
NEW ORLEANS LA CLOUDY    51  31  46 N13       30.23R
OKLAHOMA CITY  CLOUDY    46  28  49 S6        30.07F
ALBUQUERQUE NM PTCLDY    43   3  19 NW7       30.26S
SALT LAKE CITY LGT RAIN  44  31  60 SE9       30.29S
LOS ANGELES CA CLEAR     65  50  58 W6        30.27S
BOISE ID       CLOUDY    53  42  66 NW8       30.26R
SEATTLE WA     CLOUDY    56  54  93 SW16G28   30.17R
$$

*** WEATHER ACROSS MANITOBA...SASKATCHEWAN AND ONTARIO ***
                ***ONTARIO***

CITY           SKY/WX    TMP DP  RH WIND       PRES   REMARKS
GERALDTON      FLURRIES   9   3  78 W6        29.98R WCI  -1
THUNDER BAY    CLOUDY    14   9  79 W6        30.05R WCI   5
SIOUX LOOKOUT  CLOUDY     9   3  78 N6        30.01  WCI  -1
TORONTO        MOCLDY    32  25  74 SW10G17   30.14R WCI  24
BIG TROUT LK   CLEAR    -18 -24  76 W10       30.05R WCI -39
PICKLE LAKE    CLEAR     -8 -11  84 NW3       29.99R
DRYDEN         FLURRIES  10   7  85 NE3       30.00
KENORA         LGT SNOW  10   7  85 N7        30.02R WCI   0
$$
                *** MANITOBA***

CITY           SKY/WX    TMP DP  RH WIND       PRES   REMARKS
BRANDON        PTCLDY     5   0  78 NE13      30.14R WCI -12
DAUPHIN        CLEAR     -6  -9  84 VRB2      30.24R
ISLAND LAKE    CLEAR    -15 -22  70 NW8       30.15R WCI -32
PILOT MOUND      N/A      5   1  85 N10         N/A  WCI -10
THE PAS        CLEAR    -11 -17  77 NW9       30.27  WCI -29
THOMPSON       CLEAR    -18 -26  69 NW7       30.20R WCI -35
WINNIPEG       MOCLDY     5  -2  72 N16       30.16R WCI -14
LYNN LAKE      CLEAR    -20 -27  69 NW7       30.19F WCI -37
CHURCHILL      CRYSTALS -11 -17  77 NW21G26   30.10R DRFTSNOWWCI -37
GILLAM         CLEAR    -17 -24  70 W9        30.14  WCI -36
$$
                ***SASKATCHEWAN***

CITY           SKY/WX    TMP DP  RH WIND       PRES   REMARKS
ESTEVAN        FLURRIES  14   9  79 NE8       30.09R WCI   3
KINDERSLEY     FLURRIES  12   9  85 N6        30.16  WCI   3
LLOYDMINSTER   FLURRIES   3   1  92 SE3       30.20
PRINCE ALBERT  MOCLDY     0  -8  71 N8        30.27R WCI -15
REGINA         FLURRIES   9   5  85 N10       30.15R WCI  -6
YORKTON        FLURRIES  -2  -8  78 N8        30.19R WCI -17
N. BATTLEFORD  PTCLDY     3   0  85 NE10      30.23R WCI -12
LA RONGE       CLEAR    -15 -18  84 W7        30.29  WCI -31
SASKATOON      FLURRIES   5   1  85 E2        30.24R
SWIFT CURRENT  FLURRIES  14  12  92 E2        30.11R
$$
NOTE: THESE ARE AUTOMATED STATIONS WITH LIMITED QUALITY CONTROL
      "FAIR" INDICATES FEW OR NO CLOUDS BELOW 12,000 FEET WITH NO
      SIGNIFICANT WEATHER AND/OR OBSTRUCTIONS TO VISIBILITY.
      SKY/WX - SKY CONDITION AND SIGNIFICANT WEATHER.
      TMP - AIR TEMPERATURE.    DP   - DEWPOINT TEMPERATURE.
      RH  - RELATIVE HUMIDITY.  PRES - PRESSURE.
      HX  - HEAT INDEX.         WCI  - WIND CHILL INDEX.
$



USA.gov is the U.S. government's official web portal to all federal, state and local government web resources and services.